Regional Weather Roundup
Issued by NWS Little Rock, AR

Home | Current Version | Previous Version | Graphics & Text | Print | Product List | Glossary On
Versions: 1 2 3 4 5 6 7 8 9 10 11 12 13 14 15 16 17 18 19 20 21 22 23 24 25 26 27 28 29 30 31 32 33 34 35 36 37 38 39 40 41 42 43 44 45 46 47 48 49 50
000
ASUS44 KLZK 171605
RWRLZK

WEATHER ROUNDUP FOR ARKANSAS
NATIONAL WEATHER SERVICE LITTLE ROCK AR
1100 AM CDT WED SEP 17 2014

NOTE: "FAIR" INDICATES FEW OR NO CLOUDS BELOW 12,000 FEET WITH NO
SIGNIFICANT WEATHER AND/OR OBSTRUCTIONS TO VISIBILITY.

ARZ001-003-010-029-171700-
NORTHWEST ARKANSAS

CITY           SKY/WX    TMP DP  RH WIND       PRES   REMARKS
FAYETTEVILLE   SUNNY     78  69  73 SW14      29.99F
FORT SMITH     CLOUDY    74  67  78 NE7       29.99S HAZE
HARRISON       PTSUNNY   69  67  93 NE8       30.03R
BENTONVILLE    SUNNY     79  70  73 W14       29.99S
ROGERS         SUNNY     79  69  71 SW12G22   29.99S
SILOAM SPGS    SUNNY     79  66  65 SW16G22   29.98F
HIGHFILL       SUNNY     78  69  73 SW9G22    29.98F
SPRINGDALE     MOSUNNY   77  70  78 SW12G18   30.00F
$$

ARZ004-005-016-171700-
NORTH CENTRAL ARKANSAS

CITY           SKY/WX    TMP DP  RH WIND       PRES   REMARKS
BATESVILLE     CLOUDY    64  59  82 E6        30.03F
FLIPPIN        CLOUDY    64  57  77 N10G17    30.05R THUNDER
MTN HOME       TSTM      63  60  90 VRB7G17   30.07R
$$

ARZ040-041-171700-
WEST CENTRAL ARKANSAS

CITY           SKY/WX    TMP DP  RH WIND       PRES   REMARKS
MENA           PTSUNNY   77  72  83 CALM      30.02F
MOUNT IDA      CLOUDY    74  67  78 CALM      30.01R
$$

ARZ009-017-025-026-028-171700-
NORTHEAST ARKANSAS

CITY           SKY/WX    TMP DP  RH WIND       PRES   REMARKS
CORNING        LGT RAIN  61  55  82 CALM      30.07R
JONESBORO      CLOUDY    65  58  78 E5        30.04S
NEWPORT        CLOUDY    65  61  87 E6        30.04S
WALNUT RIDGE   CLOUDY    63  57  82 NE7       30.04F
BLYTHEVILLE    CLOUDY    66  58  75 E3        30.06R
$$

ARZ022-023-033-042-044-171700-
CENTRAL ARKANSAS

CITY           SKY/WX    TMP DP  RH WIND       PRES   REMARKS
LITTLE ROCK    PTSUNNY   75  64  68 SE3       30.02S
N LITTLE ROCK  PTSUNNY   74  66  75 SE6       30.02S
JACKSONVILLE   PTSUNNY   73  64  73 VRB3      30.02S
SEARCY         CLOUDY    68  62  80 E6        30.04R
HOT SPRINGS    MOSUNNY   73  66  78 CALM      30.03R
RUSSELLVILLE     N/A    N/A N/A N/A MISG      30.02R
CLINTON        CLOUDY    68  64  88 CALM      30.03F
$$

ARZ036-171700-
EAST ARKANSAS

CITY           SKY/WX    TMP DP  RH WIND       PRES   REMARKS
WEST MEMPHIS   CLOUDY    71  61  70 NE7       30.03R
$$

ARZ050-053-066-070-073-171700-
SOUTHWEST ARKANSAS

CITY           SKY/WX    TMP DP  RH WIND       PRES   REMARKS
ARKADELPHIA    FAIR      73  67  81 E3        30.02S
CAMDEN         MOSUNNY   77  68  73 NW3       30.00F HAZE
TEXARKANA      CLOUDY    72  71  97 VRB5      30.00S FOG
EL DORADO      SUNNY     79  70  74 CALM      30.01S
DE QUEEN       CLOUDY    71  69  93 VRB5      30.00S FOG
$$

ARZ056-057-069-171700-
SOUTHEAST ARKANSAS

CITY           SKY/WX    TMP DP  RH WIND       PRES   REMARKS
PINE BLUFF     PTSUNNY   78  66  66 VRB6      30.01S
STUTTGART      PTSUNNY   73  64  73 E7        30.02S
MONTICELLO     SUNNY     80  69  69 VRB3      30.00S

$$





USA.gov is the U.S. government's official web portal to all federal, state and local government web resources and services.